VLG7JX EBBR-LIRQ

Flight info

Callsign VLG7JX
Flight time N/A
Altitude 39000
Route PITES DCT KRH DCT BATUB DCT TIRUL M738 NATAG DCT LORLO DCT ADOSA DCT LUMAV Q58 BIKTU
Aircraft A20N/M-SDFGHILORVWXY/LB1

Departure

Time 2026-05-05 13:30
Airport Brussels Airport (EBBR)

Arrival

Time N/A
Airport Florence Airport, Peretola (LIRQ)
Time Latitude Longitude Altitude Speed Heading
2026-05-05 13:08 50.90264 4.48091 118 ft 0 kts 156°
2026-05-05 13:20 50.90269 4.48088 118 ft 2 kts 156°
2026-05-05 13:20 50.90282 4.48078 117 ft 2 kts 156°
2026-05-05 13:20 50.90296 4.48068 116 ft 2 kts 156°
2026-05-05 13:20 50.90310 4.48058 115 ft 2 kts 156°
2026-05-05 13:21 50.90320 4.48051 115 ft 0 kts 156°
2026-05-05 13:21 50.90331 4.48040 114 ft 2 kts 127°
2026-05-05 13:21 50.90337 4.48018 114 ft 2 kts 95°
2026-05-05 13:21 50.90336 4.47999 113 ft 0 kts 69°
2026-05-05 13:22 50.90333 4.47989 113 ft 1 kts 65°
2026-05-05 13:22 50.90333 4.47987 113 ft 0 kts 65°
2026-05-05 13:23 50.90333 4.47989 113 ft 1 kts 65°
2026-05-05 13:23 50.90342 4.48018 114 ft 4 kts 66°
2026-05-05 13:23 50.90357 4.48071 114 ft 6 kts 66°
2026-05-05 13:24 50.90376 4.48142 115 ft 8 kts 67°
2026-05-05 13:24 50.90406 4.48243 115 ft 11 kts 65°
2026-05-05 13:24 50.90442 4.48368 116 ft 13 kts 66°
2026-05-05 13:24 50.90487 4.48523 114 ft 17 kts 66°
2026-05-05 13:25 50.90537 4.48700 116 ft 18 kts 67°
2026-05-05 13:25 50.90590 4.48883 118 ft 18 kts 65°
2026-05-05 13:25 50.90644 4.49073 119 ft 19 kts 66°
2026-05-05 13:25 50.90704 4.49273 121 ft 20 kts 65°
2026-05-05 13:26 50.90770 4.49490 117 ft 23 kts 65°
2026-05-05 13:26 50.90790 4.49709 114 ft 19 kts 154°
2026-05-05 13:26 50.90661 4.49672 120 ft 18 kts 196°
2026-05-05 13:26 50.90541 4.49621 126 ft 17 kts 194°
2026-05-05 13:27 50.90428 4.49579 131 ft 16 kts 194°
2026-05-05 13:27 50.90322 4.49537 136 ft 15 kts 194°
2026-05-05 13:27 50.90210 4.49491 142 ft 18 kts 195°
2026-05-05 13:27 50.90059 4.49430 147 ft 25 kts 194°
2026-05-05 13:28 50.89877 4.49355 153 ft 27 kts 194°
2026-05-05 13:28 50.89697 4.49282 154 ft 26 kts 195°
2026-05-05 13:28 50.89548 4.49181 154 ft 22 kts 199°
2026-05-05 13:28 50.89398 4.49119 156 ft 21 kts 195°
2026-05-05 13:29 50.89270 4.49065 158 ft 18 kts 195°
2026-05-05 13:29 50.89153 4.49007 160 ft 15 kts 206°
2026-05-05 13:29 50.89135 4.49023 161 ft 2 kts 80°
2026-05-05 13:29 50.89155 4.49133 160 ft 36 kts 71°
2026-05-05 13:30 50.89339 4.49918 156 ft 114 kts 71°
2026-05-05 13:30 50.89677 4.51384 294 ft 160 kts 69°
2026-05-05 13:30 50.90034 4.52985 1073 ft 157 kts 64°
2026-05-05 13:30 50.90501 4.54491 1955 ft 154 kts 60°
2026-05-05 13:31 50.90978 4.55936 2742 ft 151 kts 60°
2026-05-05 13:31 50.91468 4.57406 3389 ft 153 kts 61°
2026-05-05 13:31 50.91975 4.58935 3860 ft 166 kts 61°
2026-05-05 13:31 50.92537 4.60635 4309 ft 183 kts 61°
2026-05-05 13:32 50.93148 4.62493 4767 ft 200 kts 63°
2026-05-05 13:32 50.93732 4.64572 5164 ft 221 kts 68°
2026-05-05 13:32 50.94244 4.66999 5603 ft 243 kts 72°
2026-05-05 13:32 50.94748 4.69619 6147 ft 260 kts 73°
2026-05-05 13:33 50.95237 4.72444 6914 ft 269 kts 81°
2026-05-05 13:33 50.95013 4.75347 7734 ft 275 kts 115°
2026-05-05 13:33 50.93817 4.77623 8580 ft 279 kts 142°
2026-05-05 13:33 50.92223 4.79384 9428 ft 282 kts 144°
2026-05-05 13:34 50.90625 4.81185 10231 ft 286 kts 142°
2026-05-05 13:34 50.89117 4.83221 10741 ft 299 kts 136°
2026-05-05 13:34 50.87590 4.85544 11316 ft 310 kts 135°
2026-05-05 13:34 50.86051 4.87915 12068 ft 314 kts 135°
2026-05-05 13:35 50.84496 4.90291 12819 ft 317 kts 135°
2026-05-05 13:35 50.82884 4.92730 13555 ft 320 kts 135°
2026-05-05 13:35 50.81296 4.95119 14245 ft 324 kts 135°
2026-05-05 13:35 50.79644 4.97595 14973 ft 328 kts 135°
2026-05-05 13:36 50.78050 4.99977 15668 ft 330 kts 136°
2026-05-05 13:36 50.76362 5.02491 16378 ft 332 kts 136°
2026-05-05 13:36 50.74688 5.04980 17057 ft 335 kts 136°
2026-05-05 13:36 50.73016 5.07464 17700 ft 338 kts 136°
2026-05-05 13:37 50.71294 5.10017 18338 ft 340 kts 136°
2026-05-05 13:37 50.69588 5.12544 18727 ft 342 kts 137°
2026-05-05 13:37 50.67854 5.15106 18840 ft 342 kts 137°
2026-05-05 13:37 50.66097 5.17699 18927 ft 347 kts 137°
2026-05-05 13:38 50.64349 5.20278 19510 ft 349 kts 137°
2026-05-05 13:38 50.62627 5.22816 20220 ft 348 kts 137°
2026-05-05 13:38 50.60834 5.25458 20859 ft 350 kts 137°
2026-05-05 13:38 50.59066 5.28057 21438 ft 353 kts 137°
2026-05-05 13:39 50.57267 5.30700 22020 ft 356 kts 137°
2026-05-05 13:39 50.55459 5.33354 22609 ft 358 kts 137°
2026-05-05 13:39 50.53650 5.36006 23185 ft 361 kts 137°
2026-05-05 13:39 50.51818 5.38686 23752 ft 363 kts 137°
2026-05-05 13:40 50.49963 5.41402 24317 ft 366 kts 138°
2026-05-05 13:40 50.48168 5.44024 24860 ft 368 kts 138°
2026-05-05 13:40 50.46298 5.46751 25390 ft 371 kts 138°
2026-05-05 13:40 50.44408 5.49505 25906 ft 373 kts 138°
2026-05-05 13:41 50.42515 5.52261 26399 ft 376 kts 138°
2026-05-05 13:41 50.40577 5.55081 26871 ft 380 kts 138°
2026-05-05 13:41 50.38658 5.57868 27329 ft 382 kts 138°
2026-05-05 13:41 50.36691 5.60722 27775 ft 385 kts 138°
2026-05-05 13:42 50.34731 5.63563 28216 ft 387 kts 138°
2026-05-05 13:42 50.32837 5.66306 28611 ft 390 kts 139°
2026-05-05 13:42 50.30858 5.69168 29003 ft 392 kts 139°
2026-05-05 13:42 50.28830 5.72100 29390 ft 394 kts 139°
2026-05-05 13:43 50.26823 5.74994 29759 ft 396 kts 139°
2026-05-05 13:43 50.24802 5.77906 30112 ft 398 kts 139°
2026-05-05 13:43 50.22774 5.80829 30427 ft 401 kts 139°
2026-05-05 13:43 50.20723 5.83778 30733 ft 403 kts 139°
2026-05-05 13:44 50.18667 5.86733 31047 ft 404 kts 139°
2026-05-05 13:44 50.16643 5.89638 31341 ft 406 kts 139°
2026-05-05 13:44 50.14587 5.92582 31640 ft 407 kts 139°
2026-05-05 13:44 50.12517 5.95546 31907 ft 409 kts 139°
2026-05-05 13:45 50.10413 5.98558 32172 ft 410 kts 140°
2026-05-05 13:45 50.08316 6.01560 32448 ft 411 kts 139°
2026-05-05 13:45 50.06223 6.04553 32726 ft 412 kts 139°
2026-05-05 13:45 50.04116 6.07562 32988 ft 413 kts 140°
2026-05-05 13:46 50.01994 6.10588 33263 ft 413 kts 140°
2026-05-05 13:46 49.99991 6.13444 33529 ft 413 kts 140°
2026-05-05 13:46 49.97838 6.16512 33874 ft 412 kts 140°
2026-05-05 13:46 49.95741 6.19491 34196 ft 410 kts 140°
2026-05-05 13:47 49.93665 6.22435 34517 ft 408 kts 140°
2026-05-05 13:47 49.91593 6.25379 34821 ft 406 kts 140°
2026-05-05 13:47 49.89518 6.28330 35068 ft 405 kts 140°
2026-05-05 13:47 49.87481 6.31222 35264 ft 405 kts 140°
2026-05-05 13:48 49.85397 6.34179 35420 ft 405 kts 140°
2026-05-05 13:48 49.83383 6.37034 35550 ft 406 kts 140°
2026-05-05 13:48 49.81312 6.39965 35680 ft 406 kts 140°
2026-05-05 13:48 49.79211 6.42942 35795 ft 408 kts 139°
2026-05-05 13:49 49.77198 6.45987 35899 ft 409 kts 136°
2026-05-05 13:49 49.75309 6.49158 36018 ft 411 kts 133°
2026-05-05 13:49 49.73495 6.52558 36144 ft 413 kts 130°
2026-05-05 13:49 49.71785 6.56141 36264 ft 414 kts 127°
2026-05-05 13:50 49.70226 6.59810 36372 ft 416 kts 124°
2026-05-05 13:50 49.68797 6.63611 36503 ft 418 kts 121°
2026-05-05 13:50 49.67472 6.67450 36656 ft 418 kts 122°
2026-05-05 13:50 49.66102 6.71435 36825 ft 418 kts 122°
2026-05-05 13:51 49.64746 6.75374 36964 ft 419 kts 122°
2026-05-05 13:51 49.63412 6.79238 37102 ft 419 kts 122°
2026-05-05 13:51 49.62035 6.83223 37260 ft 420 kts 122°
2026-05-05 13:51 49.60679 6.87138 37395 ft 420 kts 122°
2026-05-05 13:52 49.59306 6.91092 37554 ft 420 kts 122°
2026-05-05 13:52 49.57928 6.95057 37677 ft 421 kts 121°
2026-05-05 13:52 49.56572 6.98953 37793 ft 421 kts 122°
2026-05-05 13:52 49.55188 7.02925 37934 ft 422 kts 121°
2026-05-05 13:53 49.53795 7.06914 38072 ft 422 kts 122°
2026-05-05 13:53 49.52448 7.10767 38186 ft 422 kts 121°
2026-05-05 13:53 49.51062 7.14725 38326 ft 422 kts 122°
2026-05-05 13:53 49.49667 7.18704 38461 ft 423 kts 122°
2026-05-05 13:54 49.48267 7.22690 38565 ft 423 kts 122°
2026-05-05 13:54 49.46882 7.26622 38673 ft 424 kts 122°
2026-05-05 13:54 49.45507 7.30522 38781 ft 424 kts 122°
2026-05-05 13:54 49.44093 7.34531 38837 ft 425 kts 122°
2026-05-05 13:55 49.41350 7.42282 38832 ft 426 kts 121°
2026-05-05 13:55 49.38500 7.50319 38858 ft 425 kts 122°
2026-05-05 13:56 49.35677 7.58247 38847 ft 425 kts 121°
2026-05-05 13:56 49.32857 7.66147 38845 ft 425 kts 122°
2026-05-05 13:57 49.30103 7.73838 38853 ft 425 kts 122°
2026-05-05 13:57 49.27245 7.81798 38835 ft 425 kts 122°
2026-05-05 13:58 49.24405 7.89685 38839 ft 425 kts 122°
2026-05-05 13:58 49.21562 7.97544 38840 ft 424 kts 122°
2026-05-05 13:59 49.17292 8.09320 38842 ft 424 kts 122°
2026-05-05 14:00 49.13492 8.19754 38834 ft 425 kts 122°
2026-05-05 14:00 49.10151 8.28899 38830 ft 425 kts 122°
2026-05-05 14:01 49.07297 8.36686 38824 ft 425 kts 122°
2026-05-05 14:01 49.04416 8.44513 38806 ft 425 kts 122°
2026-05-05 14:02 49.01316 8.52074 38810 ft 422 kts 129°
2026-05-05 14:02 48.97571 8.58757 38824 ft 418 kts 138°
2026-05-05 14:03 48.93245 8.64485 38823 ft 415 kts 146°
2026-05-05 14:03 48.88535 8.69401 38840 ft 414 kts 149°
2026-05-05 14:04 48.83874 8.74163 38825 ft 415 kts 149°
2026-05-05 14:04 48.79168 8.78965 38827 ft 415 kts 149°
2026-05-05 14:05 48.74394 8.83830 38831 ft 415 kts 149°
2026-05-05 14:05 48.69619 8.88685 38831 ft 414 kts 149°
2026-05-05 14:06 48.64883 8.93491 38822 ft 414 kts 149°
2026-05-05 14:06 48.60112 8.98321 38838 ft 415 kts 149°
2026-05-05 14:07 48.55360 9.03119 38831 ft 415 kts 149°
2026-05-05 14:07 48.50567 9.07949 38840 ft 415 kts 149°
2026-05-05 14:08 48.45823 9.12717 38833 ft 416 kts 149°
2026-05-05 14:08 48.41020 9.17535 38839 ft 416 kts 150°
2026-05-05 14:09 48.36217 9.22342 38848 ft 416 kts 150°
2026-05-05 14:09 48.31454 9.27096 38846 ft 416 kts 150°
2026-05-05 14:10 48.26664 9.31869 38845 ft 416 kts 149°
2026-05-05 14:10 48.21852 9.36654 38844 ft 417 kts 150°
2026-05-05 14:11 48.17044 9.41423 38831 ft 417 kts 150°
2026-05-05 14:11 48.12226 9.46192 38852 ft 418 kts 150°
2026-05-05 14:12 48.07426 9.50934 38839 ft 418 kts 150°
2026-05-05 14:12 48.02591 9.55696 38831 ft 418 kts 150°
2026-05-05 14:13 47.97766 9.60567 38835 ft 419 kts 149°
2026-05-05 14:13 47.93003 9.65451 38838 ft 419 kts 150°
2026-05-05 14:14 47.88296 9.70265 38853 ft 419 kts 150°
2026-05-05 14:14 47.83510 9.75141 38832 ft 418 kts 150°
2026-05-05 14:15 47.78729 9.79999 38840 ft 420 kts 150°
2026-05-05 14:15 47.73919 9.84873 38850 ft 420 kts 150°
2026-05-05 14:16 47.69112 9.89734 38848 ft 421 kts 150°
2026-05-05 14:16 47.64378 9.94513 38854 ft 421 kts 150°